DMSP 5D-2 F13 DEB

Satellite information

Favourite Embed

Satellite Type and Status

DEBRISIN ORBIT

Key statistics

Satellite DMSP 5D-2 F13 DEB at a glance.

Uptime

11008

Days in orbit

Revolutions

≈ 14.4

Per day

Orbit

SSO

Sun Synchronous Orbit

Inclination

98.7

Latest

Satellite identification and parameters

Extended collection of information and parameters for DMSP 5D-2 F13 DEB.

Object identification

Identified? True

Debris? True

Object name: DMSP 5D-2 F13 DEB

International designator: 1995-015JV

Object number (NORAD): 42327

Object ID (CCSDS): 42327

Country: UNITED STATES OF AMERICA (US)

Current information (Y/N): Y

RCS size: SMALL

Orbital parameters

Period: 100.25 minutes

Inclination: 98.6939 deg

SMA: 7148.531 km

Apoapsis: 776.227 km

Periapsis: 764.564 km

RAAN: 159.2997 deg

Eccentricy: 0.0008158

Argument of periapsis: 122.5824 deg

Mean anomaly: 237.615 deg

Mean motion: 14.36407262 rev/day

Mean motion (dot): 0.00005565 rev/day2

B* drag term: 0.0019132 1/REarth

Two-line elements (TLE)

Creation date: May 9, 2025, 5:15 p.m.

Reference frame: TEME

Reference center: EARTH

Epoch: May 9, 2025, 1:02 a.m. UTC

TLE line 0: 0 DMSP 5D-2 F13 DEB

TLE line 1: 1 42327U 95015JV 25129.04306912 .00005565 00000-0 19132-2 0 9991

TLE line 2: 2 42327 98.6939 159.2997 0008158 122.5824 237.6150 14.36407262495605

Live tracking on map

Real-time ground track for satellite DMSP 5D-2 F13 DEB.

In-orbit conjunctions

A list of the most updated potential collisions computed for object DMSP 5D-2 F13 DEB.

Target Orbit TCA Probability of collision Miss distance Type
OAO 1 LEO 2025-05-10 09:44:02 0.0001250461 395.0 (m) PAYLOAD
METEOR 1-16 DEB LEO 2025-03-04 16:54:20 0.0001032213 309.0 (m) DEBRIS
COSMOS 1275 DEB LEO 2024-06-24 14:09:29 0.0001893457 94.0 (m) DEBRIS

Associated space launch

Military meteorological satellite

DMSP 5D-2 F13 DEB was lifted into orbit during the mission ‘Atlas E | DMSP-5D2 F13’, on board a Atlas E space rocket.

The launch took place on March 24, 1995, 2:05 p.m. from Space Launch Complex 3W.

For more information about the launch, click the button.

Launch to space Atlas E | DMSP-5D2 F13
Atlas E | DMSP-5D2 F13

Agency: N/A

Status: Launch Successful

Launch date: March 24, 1995, 2:05 p.m. UTC

Rocket: Atlas E

Launch pad: Space Launch Complex 3W

Location: Vandenberg SFB, CA, USA

...

Latest news about this satellite

There are no fresh news available about this satellite. Check back as we update our databases every day.


Newsletter sign-up

Weekly statistics, charts and insights to help you stay on top of the space industry.